CREW DRAGON 4 (52318 NORAD) Tracking and Keplerian Element Data
This shows tracking and keplerian element data for the satellite.
Feedback or suggestion? Click here.
Element | Value |
Catalog | 52318 |
Name | CREW DRAGON 4 |
Epoch Orbit | 34492 |
Epoch Day | 166.52417639 |
Epoch Year | 2022 |
RAAN | 344.8229 |
Inclination | 51.6445 |
Eccentricity | 0.0004279 |
Argument of Perigee | 240.9172 |
Mean Anonmoly | 215.6663 |
Mean Motion | 15.5001297 |
Decay Rate | 7.077E-05 |
L1 | 1 52318U 22042A 22166.52417639 .00007077 00000+0 13180-3 0 9999 |
L2 | 2 52318 51.6445 344.8229 0004279 240.9172 215.6663 15.50012970344926 |
Live tracking and technical data element details for CREW DRAGON 4 (NORAD 52318). CREW DRAGON 4 can be tracked NOW for your location showing map with azimuth and elevation plus other details from your city location.
Track the satellite on the map from your city or location and see movement details for azimuth, elevation, latitude, longitude, range, height, and movement on the map or in text.
IsCatalogInMostPopularTable: catalog: 52318, numindb: 2
Update: records affected: 1
GetName: 52318 CREW DRAGON 4
Hit Count: updated at: Mon, 27 Jun 2022 05:18:47 GMT